STARLINK-32221, 60342

Orbit data source: Space-Track

STARLINK-32221, 60342 is a payload satellite owned by SpaceX/Seattle (US) in LEO that was launched on Fri, 02 Aug 2024 UTC via an FALCON 9 launch vehicle from the Air Force Eastern Test Range (AFETR). Payload-class satellites include a variety of spacecraft equipped with specific instruments for various scientific and technological missions. These include communications satellites like Starlink; space stations such as the ISS; scientific satellites like the Hubble; Earth observation satellites from companies like Planet Labs, Umbra, and HawkEye 360; GPS; miniature CubeSats for education and research; and military/defense satellites.

Loading next visibility...
Identifier
60342, 2024-136P
Orbit
LEO
Last TLE update
3 hours ago
Origin
Manufacturer
SpaceX/Seattle
Mission
Operational Commercial Communications
Bus & Motor
STARLINK V2M, Unknown motor
Mass
730 kg wet, ~700 kg dry
Launch date (UTC)
2024-08-02 (11 months ago)
Launch vehicle
FALCON 9
Launch site
Air Force Eastern Test Range (AFETR)
Object type
Payload
Rocket body
Debris
Shape & HBR
Box + 2 Pan, 29 m
Radar Cross Section
33.884 m², Large (>1 m²)

Expand to show TLE details & history

TLE from 3 hours ago
0 STARLINK-32221
1 60342U 24136P   25189.20592573 -.00000426  00000-0 -22761-5 0  9996
2 60342  53.1594 131.2225 0001118  96.1322 263.9806 15.30187975 53349
Epoch: 2025-07-08T04:56Z
TLE epoch observation values (Epoch: 2025-07-08T04:56:31.983Z)
Latitude
-0.00001°
Longitude
130.68498°
Altitude
476.231 km
Speed
7.629 km/s
True Right ascension
08h 44m 53s
True Declination
0° 00' 00"
Sunlit
Object was in daylight at epoch
Visualization orbit readout
Latitude
-49.53846°
Longitude
69.26455°
Altitude
493.068 km
Speed
7.618 km/s
Apparent Right ascension
06h 20m 05s
Apparent Declination
-47° 18' 51"
Sunlit
Object is in daylight
Visualization observer readout
Local Sidereal Time
19:51:32
Azimuth
121.739° SE
Elevation
-71.956°
Doppler factor
1
Orbital elements
Apogee altitude
476.274 km
Perigee altitude
474.741 km
Semi-major axis
6,853.645 km
Eccentricity
0.00011
Inclination
53.1594°
RAAN
131.2225°
Arg. of periapsis
96.1322°
True anomaly
Unknown
Mean anomaly
263.9806°
Eccentric anomaly
Unknown
Mean motion
3.82526 °/min
Orbital period
94.11 mins
BSTAR
-0.0000022761
Loading maneuver chart data...
Loading SW <> Apogee altitude chart data...
Loading historical data...
Loading historical data...
Loading historical data...
Loading historical data...
Loading historical data...
Loading historical data...
Loading historical data...

STARLINK-32221 Visibility forecast

Observer location: undefined°, undefined°

Span
Click to sort rows by Start time (UTC) header in descending order
Start Az.
Max El. time (UTC)
Max El. Az.
Max El.
End time (UTC)
End Az.
6 mins2025-07-08 22:20:56.117Z200.976° SSW2025-07-08 22:23:56.117Z124.957° SE33.094°2025-07-08 22:26:56.117Z64.503° ENE
4 mins2025-07-08 23:59:56.117Z286.453° WNW2025-07-09 00:01:56.117Z336.984° NNW24.717°2025-07-09 00:03:56.117Z21.279° NNE
5 mins2025-07-09 04:56:56.117Z339.687° N2025-07-09 04:58:56.117Z44.646° NE31.267°2025-07-09 05:01:56.117Z101.926° ESE
4 mins2025-07-09 06:34:56.117Z266.794° W2025-07-09 06:36:56.117Z215.31° SW22.865°2025-07-09 06:38:56.117Z177.592° S
|